TimeCDT,TemperatureF,Dew PointF,Humidity,Sea Level PressureIn,VisibilityMPH,Wind Direction,Wind SpeedMPH,Gust SpeedMPH,PrecipitationIn,Events,Conditions,WindDirDegrees,DateUTC
12:25 AM,-74.2,-9999,N/A,30.05,2.5,Calm,Calm,-,N/A,,Clear,0,2013-09-08 05:25:00
12:35 AM,-74.2,-9999,N/A,30.05,3.0,Calm,Calm,-,N/A,,Clear,0,2013-09-08 05:35:00
12:56 AM,-73.8,-9999,N/A,30.19,3.0,Calm,Calm,-,N/A,,Clear,0,2013-09-08 05:56:00
1:56 AM,-73.8,-9999,N/A,30.18,4.0,Calm,Calm,-,N/A,,Haze,0,2013-09-08 06:56:00
2:33 AM,-74.2,-9999,N/A,30.04,2.5,Calm,Calm,-,N/A,,Partly Cloudy,0,2013-09-08 07:33:00
2:48 AM,-74.2,-9999,N/A,30.03,4.0,Calm,Calm,-,N/A,,Haze,0,2013-09-08 07:48:00
2:56 AM,-73.8,-9999,N/A,30.18,5.0,Calm,Calm,-,N/A,,Haze,0,2013-09-08 07:56:00
3:56 AM,-73.8,-9999,N/A,30.17,4.0,Calm,Calm,-,N/A,,Haze,0,2013-09-08 08:56:00
4:56 AM,-73.8,-9999,N/A,30.18,6.0,Calm,Calm,-,N/A,,Haze,0,2013-09-08 09:56:00
5:56 AM,-73.8,-9999,N/A,30.19,6.0,Calm,Calm,-,N/A,,Haze,0,2013-09-08 10:56:00
6:56 AM,-73.8,-9999,N/A,30.19,5.0,Calm,Calm,-,N/A,,Haze,0,2013-09-08 11:56:00
7:56 AM,-73.8,-9999,N/A,30.20,9.0,Calm,Calm,-,N/A,,Partly Cloudy,0,2013-09-08 12:56:00
8:56 AM,-73.8,-9999,N/A,30.21,10.0,Calm,Calm,-,N/A,,Partly Cloudy,0,2013-09-08 13:56:00
9:56 AM,-73.8,-9999,N/A,30.21,10.0,Calm,Calm,-,N/A,,Clear,0,2013-09-08 14:56:00
10:56 AM,-73.8,-9999,N/A,30.21,10.0,Calm,Calm,-,N/A,,Scattered Clouds,0,2013-09-08 15:56:00
11:56 AM,-73.8,-9999,N/A,30.20,10.0,NNW,5.8,-,N/A,,Partly Cloudy,340,2013-09-08 16:56:00
12:56 PM,-9999,-9999,N/A,30.04,10.0,Calm,Calm,-,N/A,,Scattered Clouds,0,2013-09-08 17:56:00
1:56 PM,-9999,-9999,N/A,30.03,10.0,Calm,Calm,-,N/A,,Partly Cloudy,0,2013-09-08 18:56:00
2:56 PM,-9999,-9999,N/A,30.02,10.0,North,4.6,-,N/A,,Mostly Cloudy,360,2013-09-08 19:56:00
3:56 PM,-9999,-9999,N/A,30.02,10.0,Calm,Calm,-,N/A,,Partly Cloudy,0,2013-09-08 20:56:00
4:56 PM,-9999,-9999,N/A,30.00,10.0,Calm,Calm,-,N/A,,Clear,0,2013-09-08 21:56:00
5:56 PM,-9999,-9999,N/A,30.00,10.0,Calm,Calm,-,N/A,,Clear,0,2013-09-08 22:56:00
6:56 PM,-9999,-9999,N/A,30.00,8.0,Calm,Calm,-,N/A,,Clear,0,2013-09-08 23:56:00
7:56 PM,-9999,-9999,N/A,30.01,6.0,Calm,Calm,-,N/A,,Haze,0,2013-09-09 00:56:00
8:56 PM,-9999,-9999,N/A,30.03,4.0,Calm,Calm,-,N/A,,Haze,0,2013-09-09 01:56:00
9:35 PM,-9999,-9999,N/A,30.04,2.0,Calm,Calm,-,N/A,,Clear,0,2013-09-09 02:35:00
9:56 PM,-9999,-9999,N/A,30.04,3.0,Calm,Calm,-,N/A,,Clear,0,2013-09-09 02:56:00
10:13 PM,-9999,-9999,N/A,30.04,2.5,Calm,Calm,-,N/A,,Clear,0,2013-09-09 03:13:00
10:27 PM,-9999,-9999,N/A,30.05,3.0,Calm,Calm,-,N/A,,Clear,0,2013-09-09 03:27:00
10:45 PM,-9999,-9999,N/A,30.05,2.5,Calm,Calm,-,N/A,,Clear,0,2013-09-09 03:45:00
10:56 PM,-9999,-9999,N/A,30.05,1.5,Calm,Calm,-,N/A,,Clear,0,2013-09-09 03:56:00
11:29 PM,-9999,-9999,N/A,30.05,2.0,Calm,Calm,-,N/A,,Clear,0,2013-09-09 04:29:00
11:42 PM,-9999,-9999,N/A,30.05,1.5,Calm,Calm,-,N/A,,Clear,0,2013-09-09 04:42:00
11:56 PM,-9999,-9999,N/A,30.06,2.0,Calm,Calm,-,N/A,,Clear,0,2013-09-09 04:56:00